Location: ??? ???
(33.4974°N, 35.4618°E)
Time: 11:13:22
(UTC+00:00)

H-2A R/B - Pass Details

Date: 29 October 2020
Orbit: 733 x 837 km, 98.2° (Epoch: 26 November)

Event Time Altitude Azimuth Distance (km) Brightness Sun altitude
Exits shadow 16:15:51 18° 135° (SE) 1,910 3.7 -18.7°
Maximum altitude 16:19:27 43° 72° (ENE) 1,157 2.4 -19.4°
Drops below altitude 10° 16:24:35 10° 3° (N) 2,455 4.5 -20.5°
Sets 16:27:03 0° 356° (N) 3,392 5.4 -21.0°
